Weather in Karl Marks nomidagi a. p.

Uzbekistan     41°30′44″N   60°38′30″E
temp.,
°C
wind,
m/s
gust,
m/s
humid.,
%
clouds,
%
prec.,
mm/h
press.,
hPa
HPBL,
m
13 may, thu
thu1323:00+26ne612230 0.0 1015380
02:00+24ne613200 0.0 1015419
05:00+22ene714230 0.0 1016430
08:00+24ene811200 0.0 1017591
11:00+28ene79120 0.0 10171500
14:00+30ne8970 0.0 10171930
17:00+31ne91060 0.0 10162285
20:00+28ne71280 0.0 1016396
14 may, fri
fri1423:00+25ne613110 0.0 1017364
02:00+23ne513140 0.0 1017305
05:00+20ne512200 0.0 1018238
08:00+24ne711200 0.0 1019539
11:00+29ne810160 0.0 10182281
14:00+31ne89160 0.0 10172705
17:00+31ne99160 0.0 10162650
20:00+28ne610160 0.0 1016367
15 may, sat
sat1523:00+27ene814180 0.0 1016627
02:00+25ene714250 0.0 1015563
05:00+22nne48310 0.0 1016148
08:00+25ne710260 0.0 1017591
11:00+29ne910150 0.0 10161945
14:00+31ne910120 0.0 10152196
17:00+31ne101190 0.0 10132263
20:00+28ne712100 0.0 1013442
16 may, sun
sun1623:00+26ne714130 0.0 1014477
02:00+24ne714160 0.0 1013438
05:00+21ne510240 0.0 1014233
08:00+23ne79230 0.0 1015632
11:00+27ne77160 0.0 10151358
14:00+31ne7890 0.0 10131756
17:00+32ene6880 0.0 10112242
20:00+29ne46100 0.0 101290
17 may, mon
mon1723:00+26ne512140 0.0 1012252
02:00+23ne511170 0.0 1012212
05:00+21ne59210 0.0 1012140
08:00+25ne610180 0.0 1014466
11:00+31ene89120 0.0 10132100
14:00+33ne7890 0.0 10112575
17:00+34ne7870 0.0 10102906
20:00+30nne58100 0.0 1010144